Regional Weather Roundup
Issued by NWS Grand Forks, ND

Home | Current Version | Previous Version | Text Only | Print | Product List | Glossary Off
Versions: 1 2 3 4 5 6 7 8 9 10 11 12 13 14 15 16 17 18 19 20 21 22 23 24 25 26 27 28 29 30 31 32 33 34 35 36 37 38 39 40 41 42 43 44 45 46 47 48 49 50

000
ASUS43 KFGF 221731
RWRFGF
PRAIRIE TO PINES  WEATHER ROUNDUP
NATIONAL WEATHER SERVICE EASTERN NORTH DAKOTA/GRAND FORKS ND
1200 PM CDT FRI SEP 22 2017

 **SATELLITE DATA USED TO AUGMENT SKY COVER AT AUTOMATED STATIONS**
 *****  WEATHER ACROSS EASTERN NORTH DAKOTA  *****

CITY           SKY/WX    TMP DP  RH WIND       PRES   REMARKS
GRAND FORKS    CLOUDY    65  55  70 N21       29.76F
GRAND FRKS AFB CLOUDY    61  52  74 NE14      29.77F
DEVILS LAKE    CLOUDY    59  43  55 NE23G30   29.78F
FARGO          CLOUDY    76  66  71 N8        29.70F
WAHPETON ARPT  FAIR      82  70  65 S18G24    29.69S
$$

 ***** WEATHER ACROSS CENTRAL AND WESTERN NORTH DAKOTA  *****

CITY           SKY/WX    TMP DP  RH WIND       PRES   REMARKS
BISMARCK       CLOUDY    56  45  66 N8G20     29.80R
MINOT          CLOUDY    49  42  77 NW13      29.92R
JAMESTOWN      LGT RAIN  60  54  80 NE12      29.73F
MINOT AFB      CLOUDY    46  43  87 NW13      29.96R
GARRISON         N/A     47  42  83 N18G26    29.89R
WILLISTON      CLOUDY    48  38  68 NE14      30.00R
DICKINSON      CLOUDY    47  39  74 N21G26    29.88F
HETTINGER      NOT AVBL
$$

 *****  OTHER AIRPORT OBSERVATIONS IN OUR AREA  *****

CITY           SKY/WX    TMP DP  RH WIND       PRES   REMARKS
WALHALLA       FAIR     N/A N/A N/A N15       29.84F
GRAFTON AIRPOR PTSUNNY   63  54  72 N13G20    29.79F
VALLEY CITY AR CLOUDY    59  59 100 NE16      29.74S
CANDO          CLOUDY    57  43  58 N18       29.83F
CAVALIER APRT  PTSUNNY   61  48  63 N12G21    29.82F
GWINNER        CLOUDY    70  66  88 NE8       29.68F
SHEYENNE NWR     N/A     75  69  81 E8        29.95
ROLLA          CLOUDY    52  41  66 N18       29.89F
 ***** THE ABOVE OBSERVATIONS ARE NON NWS ARE NOT QUALITY
       CONTROLLED AND MAY MIS-REPORT RAIN FOR SNOW...
$$

  *****  WEATHER ACROSS NORTHERN MINNESOTA  *****

CITY           SKY/WX    TMP DP  RH WIND       PRES   REMARKS
FLAG ISLAND    FAIR      66  54  63 N6        29.85S
WARROAD        CLOUDY    63  59  88 NE10      29.85F
ROSEAU         FAIR      66  57  72 E13       29.83F
HALLOCK          N/A     70  54  56 NE9       29.80F
THF RVR FALLS  CLOUDY    67  60  78 NE16      29.78F
BAUDETTE       CLOUDY    69  64  84 E12       29.84F
WASKISH        CLOUDY    77  68  73 E6        29.80F
CROOKSTON      CLOUDY    70  63  78 E14       29.75F
STEPHEN NDAWN    N/A     66  54  63 NE12        N/A
GREENBUSH NDAW   N/A     66  54  63 E10         N/A
$$
  *****  WEATHER ACROSS CENTRAL AND WEST MINNESOTA  *****

CITY           SKY/WX    TMP DP  RH WIND       PRES   REMARKS
FOSSTON        FAIR      81  66  61 E8        29.74F
BEMIDJI        FAIR      77  66  69 SE12      29.78F
PARK RAPIDS    CLOUDY    76  69  79 SE14      29.78F
ELBOW LAKE     FAIR      80  73  81 E18       29.73F HAZE
WADENA         PTSUNNY   79  72  78 SE14      29.75F
DETROIT LAKES  FAIR      77  68  73 SE14      29.74F
MOORHEAD       FAIR      81  68  65 SE7       29.70F
FERGUS FALLS   FAIR      82  72  69 S18       29.69F
MORRIS MN      FAIR      82  73  74 SE17      29.71F
STAPLES        CLOUDY    77  72  83 SE10      29.78F
$$
  *****  WEATHER ELSEWHERE ACROSS MINNESOTA  *****

CITY           SKY/WX    TMP DP  RH WIND       PRES   REMARKS
DULUTH         FAIR      67  65  93 S15       29.87R
INTRNTL FALLS  CLOUDY    70  64  81 E5        29.86R
ELY            FAIR      72  61  68 CALM      29.87S
CLOQUET        FAIR      68  64  88 S3        29.88R
WHEATON        FAIR      81  70  69 SE13G21   29.71S
BRAINERD       PTSUNNY   77  70  79 SE10G20   29.80F
HIBBING        FAIR      74  62  66 SE8       29.85R
ALEXANDRIA     CLOUDY    77  72  84 SE16      29.79S
SAINT CLOUD    FAIR      76  74  93 SE10      29.82S
MINNEAPOLIS    FAIR      85  73  67 VRB5      29.85S HX  91
$$

  *****  WEATHER ACROSS SOUTH DAKOTA  *****

CITY           SKY/WX    TMP DP  RH WIND       PRES   REMARKS
SIOUX FALLS    FAIR      85  72  65 S18G29    29.72F HX  91
BROOKINGS      FAIR      84  71  65 S24       29.73F
WATERTOWN      FAIR      82  72  71 S21       29.70S
HURON          FAIR      86  68  54 S21G26    29.64R
SISSETON         N/A     81  74  79 SE13      29.68F
ABERDEEN       PTSUNNY   85  70  60 S16G24    29.63S
MITCHELL       FAIR      89  67  47 S18G24    29.66S HX  92
PIERRE         CLOUDY    71  56  58 W17G25    29.66R
MOBRIDGE       CLOUDY    64  59  83 VRB7      29.65R
RAPID CITY     CLOUDY    55  39  54 NW30G38   29.84R
$$

  *****  SOME WEATHER IN NEARBY STATES *****

CITY           SKY/WX    TMP DP  RH WIND       PRES   REMARKS
GLASGOW MT     CLOUDY    42  41  96 NW9       30.06F
GREAT FALLS MT LGT RAIN  37  34  89 N10       30.07F
CHEYENNE WY    FAIR      61  39  44 VRB6      29.89R
SCOTTSBLUFF NE FAIR      60  41  49 CALM      29.84S
OMAHA NE       FAIR      88  70  55 S22G29    29.84F HX  93
DES MOINES IA  FAIR      87  70  56 S21       29.94S HX  92
DAVENPORT IA   FAIR      87  70  56 S12G17    30.05F HX  92
CHICAGO IL     FAIR      91  65  41 SW13      30.07S HX  93
EAU CLAIRE WI  FAIR      87  71  58 S13       29.90S HX  93
LA CROSSE WI   FAIR      89  71  55 S20       29.94R HX  95
$$

  *****  SOME NATIONAL WEATHER *****

CITY           SKY/WX    TMP DP  RH WIND       PRES   REMARKS
LA GUARDIA NY  FAIR      78  56  46 N20       29.97F
RALEIGH NC     FAIR      84  63  49 NE5       30.07F
ATLANTA GA     FAIR      85  68  56 VRB3      30.07F
NEW ORLEANS LA FAIR      89  71  55 NE3       29.99F HX  95
OKLAHOMA CITY  FAIR      83  69  62 S16       29.97F
ALBUQUERQUE NM PTSUNNY   75  37  25 S15       29.99F
SALT LAKE CITY CLOUDY    49  42  77 N6        29.90S
LOS ANGELES CA FAIR      68  53  58 SE6       29.90R
BOISE ID       CLOUDY    44  41  89 W10       29.94R
SEATTLE WA     FAIR      56  49  77 CALM      30.07R
$$

*** WEATHER ACROSS MANITOBA...SASKATCHEWAN AND ONTARIO ***
                ***ONTARIO***

CITY           SKY/WX    TMP DP  RH WIND       PRES   REMARKS
GERALDTON      CLOUDY    68  66  94 SW5       29.92R FOG
THUNDER BAY    CLOUDY    63  61  94 NE6       29.86F
SIOUX LOOKOUT  PTSUNNY   68  59  73 CALM      29.88F
TORONTO        MOSUNNY   81  57  44 SE8       30.14F
BIG TROUT LK   MOSUNNY   63  54  72 NW14G20   29.86R
PICKLE LAKE    NOT AVBL
DRYDEN         SUNNY     68  57  68 NE8       29.87F
KENORA         PTSUNNY   66  52  59 NE10      29.88S
$$
                *** MANITOBA***

CITY           SKY/WX    TMP DP  RH WIND       PRES   REMARKS
BRANDON        PTSUNNY   55  43  62 NE16      29.93F
DAUPHIN        PTSUNNY   52  45  76 N12       29.99F
ISLAND LAKE    PTSUNNY   52  46  82 NW7       29.93S
PILOT MOUND      N/A     57  45  62 N14G21      N/A
THE PAS        PTSUNNY   48  39  71 N8        30.03S
THOMPSON       CLOUDY    46  41  81 NW14G20   29.95S
WINNIPEG       MOSUNNY   64  48  55 NE17G24   29.89F
LYNN LAKE      CLOUDY    41  37  87 NE13G18   30.07R
CHURCHILL      CLOUDY    43  43 100 NE24G32   29.94R FOG
GILLAM         DRIZZLE   46  45  93 NW9       29.92
$$
                ***SASKATCHEWAN***

CITY           SKY/WX    TMP DP  RH WIND       PRES   REMARKS
ESTEVAN        LGT RAIN  48  41  76 N12       29.99F
KINDERSLEY     CLOUDY    43  37  81 N6        30.08S
LLOYDMINSTER   CLOUDY    43  39  87 NE8       30.10S
PRINCE ALBERT  PTSUNNY   45  37  76 NE6       30.09F
REGINA         CLOUDY    45  41  87 NW7       30.05R
YORKTON        CLOUDY    43  41  93 N9        30.02F
N. BATTLEFORD  CLOUDY    45  37  76 NE8       30.11R
LA RONGE       CLOUDY    45  37  76 N7        30.10R
SASKATOON      LGT RAIN  43  39  87 N7        30.09S
SWIFT CURRENT  CLOUDY    39  37  93 NW6       30.06S
$$
NOTE: THESE ARE AUTOMATED STATIONS WITH LIMITED QUALITY CONTROL
      "FAIR" INDICATES FEW OR NO CLOUDS BELOW 12,000 FEET WITH NO
      SIGNIFICANT WEATHER AND/OR OBSTRUCTIONS TO VISIBILITY.
      SKY/WX - SKY CONDITION AND SIGNIFICANT WEATHER.
      TMP - AIR TEMPERATURE.    DP   - DEWPOINT TEMPERATURE.
      RH  - RELATIVE HUMIDITY.  PRES - PRESSURE.
      HX  - HEAT INDEX.         WCI  - WIND CHILL INDEX.
$



USA.gov is the U.S. government's official web portal to all federal, state and local government web resources and services.